Time,TemperatureF,DewpointF,PressureIn,WindDirection,WindDirectionDegrees,WindSpeedMPH,WindSpeedGustMPH,Humidity,HourlyPrecipIn,Conditions,Clouds,dailyrainin,SoftwareType,DateUTC
2013-03-31 00:00:00,43.0,31.0,-100.00,North,-999,-999.0,-999.0,63,-99.99,,,-99.99,,2013-03-31 07:00:00,
2013-03-31 00:53:00,43.0,31.0,-100.00,North,-999,-999.0,-999.0,63,-99.99,,,-99.99,,2013-03-31 07:53:00,
2013-03-31 01:00:00,42.0,30.0,-100.00,NNW,347,0.0,1.0,63,-99.99,,,-99.99,,2013-03-31 08:00:00,
2013-03-31 02:00:00,40.0,31.0,-100.00,WNW,293,0.0,1.0,70,-99.99,,,-99.99,,2013-03-31 09:00:00,
2013-03-31 03:00:00,41.0,33.0,-100.00,WNW,292,0.0,0.0,73,-99.99,,,-99.99,,2013-03-31 10:00:00,
2013-03-31 04:00:00,42.0,32.0,-100.00,West,280,0.0,1.0,68,-99.99,,,0.00,,2013-03-31 11:00:00,
2013-03-31 05:00:00,41.0,30.0,-100.00,West,264,0.0,1.0,64,-99.99,,,-99.99,,2013-03-31 12:00:00,
2013-03-31 06:00:00,41.0,30.0,-100.00,WSW,250,1.0,1.0,66,-99.99,,,-99.99,,2013-03-31 13:00:00,
2013-03-31 07:00:00,41.0,31.0,-100.00,NNW,344,1.0,1.0,68,-99.99,,,-99.99,,2013-03-31 14:00:00,
2013-03-31 08:00:00,43.0,34.0,-100.00,WNW,284,1.0,3.0,70,-99.99,,,-99.99,,2013-03-31 15:00:00,
2013-03-31 09:00:00,46.0,33.0,-100.00,NW,320,2.0,3.0,61,-99.99,,,-99.99,,2013-03-31 16:00:00,
2013-03-31 10:00:00,47.0,29.0,-100.00,NNW,337,2.0,4.0,49,-99.99,,,-99.99,,2013-03-31 17:00:00,
2013-03-31 11:00:00,48.0,26.0,-100.00,NNW,333,2.0,3.0,41,-99.99,,,-99.99,,2013-03-31 18:00:00,
2013-03-31 12:00:00,50.0,28.0,-100.00,WNW,301,3.0,4.0,43,-99.99,,,-99.99,,2013-03-31 19:00:00,
2013-03-31 13:00:00,50.0,28.0,-100.00,NW,315,3.0,4.0,43,-99.99,,,-99.99,,2013-03-31 20:00:00,
2013-03-31 14:00:00,51.0,29.0,-100.00,NW,323,3.0,4.0,43,-99.99,,,-99.99,,2013-03-31 21:00:00,
2013-03-31 15:00:00,51.0,27.0,-100.00,NE,42,2.0,3.0,39,-99.99,,,0.00,,2013-03-31 22:00:00,
2013-03-31 16:00:00,51.0,26.0,-100.00,North,1,2.0,4.0,37,-99.99,,,-99.99,,2013-03-31 23:00:00,
2013-03-31 17:00:00,51.0,25.0,-100.00,NW,314,2.0,4.0,36,-99.99,,,-99.99,,2013-04-01 00:00:00,
2013-03-31 18:00:00,50.0,28.0,-100.00,West,276,2.0,4.0,42,-99.99,,,-99.99,,2013-04-01 01:00:00,
2013-03-31 19:00:00,48.0,27.0,-100.00,SSW,200,2.0,4.0,44,-99.99,,,-99.99,,2013-04-01 02:00:00,
2013-03-31 20:00:00,45.0,28.0,-100.00,WSW,254,1.0,2.0,50,-99.99,,,-99.99,,2013-04-01 03:00:00,
2013-03-31 21:00:00,45.0,27.0,-100.00,WSW,245,1.0,3.0,50,-99.99,,,0.00,,2013-04-01 04:00:00,
2013-03-31 22:00:00,46.0,29.0,-100.00,South,188,1.0,2.0,52,-99.99,,,-99.99,,2013-04-01 05:00:00,
2013-03-31 23:00:00,45.0,27.0,-100.00,SW,225,1.0,2.0,49,-99.99,,,0.00,,2013-04-01 06:00:00,